Kelso-Longview, WA
on Monday, November 12, 2012

Monday
Previous Day Next Day
Daily Summary
 ActualAverage (KSPB)Record (KSPB)
Temperature
Mean Temperature °F °F  
Max Temperature 51°F °F 62°F (1999)
Min Temperature 48°F °F 20°F (2014)
Degree Days
Heating Degree Days 16    
Month to date heating degree days  
Since 1 July heating degree days  
Cooling Degree Days 0    
Month to date cooling degree days  
Year to date cooling degree days  
Moisture
Dew Point 45°F   
Average Humidity 83    
Maximum Humidity 87    
Minimum Humidity 76    
Precipitation
Precipitation 0.04 in in 1.32 in (1999)
Month to date precipitation  
Year to date precipitation  
Wind
Wind Speed 11 mph   
Max Wind Speed 22 mph   
Max Gust Speed 32 mph   
Visibility 10 miles   
Events     

Key: T is trace of precipitation, MM is missing value
Source: NWS Daily Summary
Time(PST)TemperatureDew PointHumidity Pressure Visibility Wind DirectionWind SpeedGust SpeedPrecipitationEvents Conditions
12:15 AM 48.2°F 42.8°F 82% 30.13 in 10.0 miles SSE 13.8 mph 23.0 mph 0.01 in   Overcast
12:35 AM 48.2°F 42.8°F 82% 30.12 in 10.0 miles SE 12.7 mph 24.2 mph 0.01 in   Overcast
12:55 AM 48.2°F 42.8°F 82% 30.12 in 10.0 miles SE 11.5 mph 18.4 mph 0.01 in   Overcast
1:15 AM 48.2°F 42.8°F 82% 30.12 in 10.0 miles SE 16.1 mph 23.0 mph N/A   Overcast
1:35 AM 48.2°F 42.8°F 82% 30.11 in 10.0 miles SSE 16.1 mph 24.2 mph N/A   Overcast
1:55 AM 48.2°F 42.8°F 82% 30.11 in 10.0 miles SE 12.7 mph 23.0 mph N/A   Overcast
2:15 AM 48.2°F 42.8°F 82% 30.11 in 10.0 miles SSE 12.7 mph 32.2 mph 0.01 in   Overcast
2:35 AM 48.2°F 42.8°F 82% 30.11 in 10.0 miles SE 18.4 mph 27.6 mph 0.01 in   Overcast
2:55 AM 48.2°F 42.8°F 82% 30.10 in 10.0 miles SE 19.6 mph 32.2 mph 0.01 in   Overcast
3:15 AM 48.2°F 42.8°F 82% 30.10 in 10.0 miles SE 21.9 mph 31.1 mph N/A   Overcast
3:35 AM 48.2°F 42.8°F 82% 30.10 in 10.0 miles SSE 17.3 mph 27.6 mph N/A   Overcast
3:55 AM 48.2°F 42.8°F 82% 30.10 in 10.0 miles SSE 16.1 mph 28.8 mph N/A   Overcast
4:15 AM 48.2°F 42.8°F 82% 30.11 in 10.0 miles SSE 19.6 mph 26.5 mph N/A   Overcast
4:35 AM 50.0°F 42.8°F 76% 30.11 in 10.0 miles SSE 17.3 mph 28.8 mph N/A   Overcast
4:55 AM 50.0°F 42.8°F 76% 30.11 in 10.0 miles SE 15.0 mph 23.0 mph N/A   Overcast
5:15 AM 50.0°F 42.8°F 76% 30.11 in 10.0 miles SE 15.0 mph 25.3 mph N/A   Overcast
5:35 AM 48.2°F 42.8°F 82% 30.11 in 10.0 miles SSE 16.1 mph 27.6 mph N/A   Overcast
5:55 AM 48.2°F 42.8°F 82% 30.12 in 10.0 miles SSE 16.1 mph 26.5 mph N/A   Overcast
6:15 AM 48.2°F 44.6°F 87% 30.12 in 10.0 miles SE 15.0 mph 21.9 mph N/A   Overcast
6:35 AM 48.2°F 44.6°F 87% 30.12 in 10.0 miles SSE 18.4 mph 25.3 mph N/A   Overcast
6:55 AM 48.2°F 42.8°F 82% 30.13 in 10.0 miles SE 12.7 mph 23.0 mph N/A   Overcast
7:15 AM 48.2°F 44.6°F 87% 30.14 in 10.0 miles SE 13.8 mph 20.7 mph N/A   Overcast
7:55 AM 48.2°F 44.6°F 87% 30.15 in 10.0 miles SSE 5.8 mph 17.3 mph N/A   Overcast
8:15 AM 48.2°F 44.6°F 87% 30.16 in 10.0 miles SSE 9.2 mph 16.1 mph N/A   Overcast
8:35 AM 48.2°F 44.6°F 87% 30.16 in 7.0 miles SSE 9.2 mph - 0.01 in   Overcast
8:55 AM 48.2°F 44.6°F 87% 30.16 in 10.0 miles SSE 9.2 mph - 0.02 in   Overcast
9:15 AM 48.2°F 44.6°F 87% 30.16 in 10.0 miles SSE 9.2 mph - N/A   Overcast
9:35 AM 50.0°F 44.6°F 82% 30.16 in 10.0 miles SE 10.4 mph - N/A   Overcast
9:55 AM 50.0°F 44.6°F 82% 30.16 in 10.0 miles SE 11.5 mph - N/A   Overcast
10:15 AM 51.8°F 44.6°F 76% 30.17 in 10.0 miles SE 9.2 mph 18.4 mph N/A   Overcast
10:35 AM 51.8°F 44.6°F 76% 30.17 in 10.0 miles SSE 11.5 mph 17.3 mph N/A   Overcast
10:55 AM 51.8°F 44.6°F 76% 30.18 in 10.0 miles SSE 10.4 mph 16.1 mph N/A   Overcast
11:15 AM 51.8°F 44.6°F 76% 30.18 in 10.0 miles SSE 10.4 mph 16.1 mph N/A   Overcast
11:35 AM 51.8°F 44.6°F 76% 30.18 in 10.0 miles SSE 9.2 mph 16.1 mph N/A   Overcast
11:55 AM 51.8°F 44.6°F 76% 30.18 in 10.0 miles SSE 8.1 mph - N/A   Overcast
12:15 PM 51.8°F 44.6°F 76% 30.18 in 10.0 miles South 8.1 mph - N/A   Overcast
12:35 PM 51.8°F 44.6°F 76% 30.18 in 10.0 miles SSE 6.9 mph - N/A   Overcast
12:55 PM 51.8°F 44.6°F 76% 30.19 in 10.0 miles SSE 9.2 mph - N/A   Overcast
1:15 PM 51.8°F 46.4°F 82% 30.19 in 10.0 miles South 6.9 mph - N/A   Overcast
1:35 PM 51.8°F 46.4°F 82% 30.19 in 10.0 miles SSE 5.8 mph - N/A   Overcast
1:55 PM 51.8°F 46.4°F 82% 30.19 in 10.0 miles South 6.9 mph - N/A   Overcast
2:35 PM 51.8°F 46.4°F 82% 30.19 in 10.0 miles SSE 9.2 mph - N/A   Overcast
2:55 PM 51.8°F 46.4°F 82% 30.19 in 7.0 miles SSE 5.8 mph - N/A   Overcast
3:15 PM 51.8°F 46.4°F 82% 30.19 in 10.0 miles SE 8.1 mph - N/A   Overcast
3:35 PM 51.8°F 46.4°F 82% 30.19 in 10.0 miles SE 5.8 mph - N/A   Overcast
3:55 PM 51.8°F 46.4°F 82% 30.19 in 10.0 miles SSE 5.8 mph - N/A   Overcast
4:15 PM 51.8°F 46.4°F 82% 30.20 in 10.0 miles South 3.5 mph - N/A   Overcast
4:35 PM 51.8°F 46.4°F 82% 30.20 in 10.0 miles SSE 3.5 mph - N/A   Overcast
4:55 PM 51.8°F 46.4°F 82% 30.19 in 10.0 miles SE 4.6 mph - N/A   Overcast
5:15 PM 51.8°F 46.4°F 82% 30.19 in 10.0 miles SSE 3.5 mph - N/A   Mostly Cloudy
5:35 PM 50.0°F 44.6°F 82% 30.20 in 10.0 miles Calm Calm - N/A   Mostly Cloudy
5:55 PM 50.0°F 46.4°F 87% 30.21 in 10.0 miles South 3.5 mph - N/A   Overcast
6:15 PM 50.0°F 46.4°F 87% 30.21 in 10.0 miles South 3.5 mph - N/A   Overcast
6:35 PM 50.0°F 46.4°F 87% 30.21 in 10.0 miles SE 5.8 mph - N/A   Overcast
6:55 PM 51.8°F 46.4°F 82% 30.22 in 10.0 miles SSE 4.6 mph - N/A   Overcast
7:15 PM 51.8°F 46.4°F 82% 30.22 in 10.0 miles South 4.6 mph - N/A   Overcast
7:35 PM 50.0°F 46.4°F 87% 30.22 in 10.0 miles South 3.5 mph - N/A   Overcast
7:55 PM 50.0°F 46.4°F 87% 30.22 in 10.0 miles Calm Calm - N/A   Overcast
8:15 PM 50.0°F 46.4°F 87% 30.23 in 10.0 miles Calm Calm - N/A   Overcast
8:35 PM 50.0°F 46.4°F 87% 30.23 in 10.0 miles Calm Calm - N/A   Overcast
8:55 PM 50.0°F 46.4°F 87% 30.23 in 10.0 miles SE 5.8 mph - N/A   Overcast
9:15 PM 50.0°F 46.4°F 87% 30.23 in 10.0 miles SE 3.5 mph - N/A   Overcast
9:35 PM 50.0°F 46.4°F 87% 30.24 in 10.0 miles SSW 6.9 mph - N/A   Overcast
9:55 PM 50.0°F 46.4°F 87% 30.24 in 10.0 miles SE 3.5 mph - N/A   Overcast
10:15 PM 50.0°F 46.4°F 87% 30.24 in 10.0 miles SE 3.5 mph - N/A   Overcast
10:35 PM 50.0°F 46.4°F 87% 30.24 in 10.0 miles Calm Calm - N/A   Overcast
10:55 PM 50.0°F 46.4°F 87% 30.24 in 10.0 miles SSE 3.5 mph - N/A   Overcast
11:15 PM 50.0°F 46.4°F 87% 30.24 in 10.0 miles SE 3.5 mph - N/A   Overcast
11:35 PM 50.0°F 46.4°F 87% 30.25 in 10.0 miles South 5.8 mph - N/A   Overcast
11:55 PM 50.0°F 46.4°F 87% 30.25 in 10.0 miles Calm Calm - N/A   Overcast
Moon Phase
Nov. 12 Nov. 13 Nov. 20 Nov. 28 Dec. 06
Sunrise:07:08 AM (PST) Moon Rise:05:38 AM (PST)11/12
Sunset:04:42 PM (PST) Moon Set:03:52 PM (PST)11/12

Copyright © 2014 The Weather Underground, Inc.